Location: Olomouc
(49.5830°N, 17.2500°E)
Time: 19:22:10
(UTC+02:00)

ISS - Pass Details

Date: 15 May 2021
Orbit: 417 x 422 km, 51.6° (Epoch: 14 June)

Event Time Altitude Azimuth Distance (km) Brightness Sun altitude
Rises 23:38:19 0° 260° (W) 2,363 0.1 -19.6°
Reaches altitude 10° 23:40:25 10° 262° (W) 1,501 -0.9 -19.7°
Maximum altitude 23:43:48 72° 348° (NNW) 447 -3.6 -19.9°
Drops below altitude 10° 23:47:10 10° 73° (ENE) 1,508 -0.9 -20.0°
Sets 23:49:17 0° 75° (ENE) 2,374 0.1 -20.1°
